Torna al catalogo

STARLINK-3649

AttivoComunicazioniVLEO
NORAD 51980·PAYLOAD·🇺🇸 United States

Lanciato Mar 9, 2022 da Cape Canaveral Space Force Station

Loading…

Prossimi Passaggi (prossime 24 ore)

TLE

AggiornatoSource: CelesTrak SupGP

Epoca: Sep 15, 2026, 01:40 UTC

1 51980C 22025AA  26258.06993056 -.00007820  00000+0 -22372-3 0  2580
2 51980  53.1587 260.8098 0001383  74.6467 310.4942 15.35405546    18

Traccia STARLINK-3649 in tempo reale con AllMySat

Download on the App Store